Retour au catalogue

STARLINK-31665

ActifCommunicationsVLEO
NORAD 59655·PAYLOAD·🇺🇸 United States

Lancé May 6, 2024 depuis Cape Canaveral Space Force Station

Loading…

Prochains Passages (prochaines 24 heures)

TLE

FraisSource: CelesTrak SupGP

Époque: Sep 14, 2026, 22:17 UTC

1 59655C 24084B   26257.92895833  .00057465  00000+0  20812-2 0  2575
2 59655  43.0010  49.5617 0001515 274.6721 153.4318 15.27552072    15

Suivez STARLINK-31665 en temps réel avec AllMySat

Download on the App Store